When you browse on this site, cookies collect data to enhance your experience and personalize the content and advertising you see.
Visit our Privacy Policy to learn more. By continuing to use the site, you agree to this use of cookies and data.
  • In United Kingdom
  • List of Countries
  • For 7 days
  • Water Temperature
  • Satellite Maps
  • Weather Map
  • Weather Widgets
  • user-avatar
    Login

    Hourly Weather Safaga

    Today, 22 May, Wednesday

    Time Temperature Precipitation Wind Pressure Humidity
    00:00 +30°C° 0 mm 1 mps 705 mmHg 13%
    01:00 +29°C° 0 mm 1 mps 705 mmHg 13%
    02:00 +29°C° 0 mm 1 mps 704 mmHg 13%
    03:00 +28°C° 0 mm 1 mps 704 mmHg 13%
    04:00 +28°C° 0 mm 1 mps 704 mmHg 13%
    05:00 +28°C° 0 mm 1 mps 704 mmHg 13%
    06:00 +30°C° 0 mm 3 mps 705 mmHg 11%
    07:00 +34°C° 0 mm 4 mps 706 mmHg 10%
    08:00 +36°C° 0 mm 5 mps 706 mmHg 8%
    09:00 +39°C° 0 mm 6 mps 706 mmHg 8%
    10:00 +40°C° 0 mm 6 mps 706 mmHg 8%
    11:00 +41°C° 0 mm 7 mps 707 mmHg 8%
    12:00 +41°C° 0 mm 7 mps 706 mmHg 8%
    13:00 +41°C° 0 mm 7 mps 706 mmHg 7%
    14:00 +43°C° 0 mm 7 mps 706 mmHg 7%
    15:00 +41°C° 0 mm 7 mps 705 mmHg 7%
    16:00 +41°C° 0 mm 6 mps 705 mmHg 7%
    17:00 +40°C° 0 mm 5 mps 705 mmHg 7%
    18:00 +37°C° 0 mm 4 mps 704 mmHg 8%
    19:00 +36°C° 0 mm 2 mps 704 mmHg 9%
    20:00 +33°C° 0 mm 1 mps 704 mmHg 10%
    21:00 +33°C° 0 mm 1 mps 704 mmHg 9%
    22:00 +33°C° 0 mm 1 mps 704 mmHg 9%
    23:00 +32°C° 0 mm 1 mps 704 mmHg 9%

    Tomorrow, 23 May, Thursday

    Time Temperature Precipitation Wind Pressure Humidity
    00:00 +32°C° 0 mm 2 mps 704 mmHg 9%
    01:00 +31°C° 0 mm 2 mps 704 mmHg 8%
    02:00 +31°C° 0 mm 2 mps 704 mmHg 8%
    03:00 +31°C° 0 mm 2 mps 704 mmHg 8%
    04:00 +31°C° 0 mm 2 mps 704 mmHg 9%
    05:00 +30°C° 0 mm 3 mps 704 mmHg 10%
    06:00 +33°C° 0 mm 4 mps 704 mmHg 9%
    07:00 +35°C° 0 mm 6 mps 705 mmHg 9%
    08:00 +38°C° 0 mm 8 mps 705 mmHg 9%
    09:00 +39°C° 0 mm 8 mps 705 mmHg 9%
    10:00 +40°C° 0 mm 8 mps 705 mmHg 8%
    11:00 +41°C° 0 mm 8 mps 705 mmHg 8%
    12:00 +43°C° 0 mm 7 mps 705 mmHg 8%
    13:00 +43°C° 0 mm 7 mps 705 mmHg 7%
    14:00 +42°C° 0 mm 6 mps 704 mmHg 7%
    15:00 +42°C° 0 mm 6 mps 704 mmHg 7%
    16:00 +42°C° 0 mm 5 mps 703 mmHg 7%
    17:00 +41°C° 0 mm 5 mps 703 mmHg 7%
    18:00 +40°C° 0 mm 4 mps 703 mmHg 8%
    19:00 +37°C° 0 mm 2 mps 703 mmHg 9%
    20:00 +35°C° 0 mm 1 mps 703 mmHg 10%
    21:00 +34°C° 0 mm 1 mps 703 mmHg 10%
    22:00 +34°C° 0 mm 1 mps 703 mmHg 10%
    23:00 +33°C° 0 mm 1 mps 703 mmHg 10%

    Day after tomorrow, 24 May, Friday

    Time Temperature Precipitation Wind Pressure Humidity
    00:00 +33°C° 0 mm 1 mps 703 mmHg 10%
    01:00 +32°C° 0 mm 1 mps 702 mmHg 11%
    02:00 +32°C° 0 mm 1 mps 702 mmHg 11%
    03:00 +31°C° 0 mm 1 mps 702 mmHg 11%
    04:00 +31°C° 0 mm 1 mps 702 mmHg 12%
    05:00 +30°C° 0 mm 1 mps 702 mmHg 12%
    06:00 +32°C° 0 mm 1 mps 703 mmHg 11%
    07:00 +35°C° 0 mm 1 mps 703 mmHg 10%
    08:00 +38°C° 0 mm 2 mps 704 mmHg 8%
    09:00 +39°C° 0 mm 2 mps 704 mmHg 8%
    10:00 +42°C° 0 mm 3 mps 705 mmHg 8%
    11:00 +43°C° 0 mm 3 mps 705 mmHg 7%
    12:00 +44°C° 0 mm 4 mps 704 mmHg 7%
    13:00 +44°C° 0 mm 4 mps 704 mmHg 7%
    14:00 +44°C° 0 mm 4 mps 704 mmHg 7%
    15:00 +44°C° 0 mm 4 mps 703 mmHg 8%
    16:00 +43°C° 0 mm 4 mps 703 mmHg 8%
    17:00 +42°C° 0 mm 5 mps 702 mmHg 9%
    18:00 +41°C° 0 mm 4 mps 702 mmHg 10%
    19:00 +38°C° 0 mm 3 mps 702 mmHg 11%
    20:00 +37°C° 0 mm 2 mps 703 mmHg 13%
    21:00 +35°C° 0 mm 1 mps 703 mmHg 13%
    22:00 +34°C° 0 mm 1 mps 703 mmHg 12%
    23:00 +34°C° 0 mm 1 mps 703 mmHg 12%

    25 May, Saturday

    Time Temperature Precipitation Wind Pressure Humidity
    00:00 +33°C° 0 mm 1 mps 702 mmHg 13%
    01:00 +32°C° 0 mm 1 mps 702 mmHg 13%
    02:00 +30°C° 0 mm 0 mps 702 mmHg 14%
    03:00 +29°C° 0 mm 0 mps 702 mmHg 15%
    04:00 +28°C° 0 mm 0 mps 702 mmHg 16%
    05:00 +28°C° 0 mm 0 mps 702 mmHg 18%
    06:00 +32°C° 0 mm 1 mps 703 mmHg 15%
    07:00 +35°C° 0 mm 1 mps 704 mmHg 13%
    08:00 +37°C° 0 mm 1 mps 705 mmHg 10%
    09:00 +39°C° 0 mm 1 mps 705 mmHg 10%
    10:00 +40°C° 0 mm 2 mps 705 mmHg 10%
    11:00 +41°C° 0 mm 2 mps 705 mmHg 10%
    12:00 +43°C° 0 mm 3 mps 704 mmHg 10%
    13:00 +43°C° 0 mm 3 mps 704 mmHg 11%
    14:00 +43°C° 0 mm 4 mps 703 mmHg 12%
    15:00 +42°C° 0 mm 4 mps 703 mmHg 13%
    16:00 +41°C° 0 mm 5 mps 703 mmHg 13%
    17:00 +41°C° 0 mm 5 mps 703 mmHg 14%
    18:00 +40°C° 0 mm 4 mps 703 mmHg 15%
    19:00 +37°C° 0 mm 3 mps 703 mmHg 16%
    20:00 +35°C° 0 mm 1 mps 703 mmHg 16%
    21:00 +35°C° 0 mm 2 mps 703 mmHg 19%
    22:00 +34°C° 0 mm 2 mps 703 mmHg 22%
    23:00 +34°C° 0 mm 3 mps 703 mmHg 25%

    26 May, Sunday

    Time Temperature Precipitation Wind Pressure Humidity
    00:00 +33°C° 0 mm 3 mps 703 mmHg 29%
    01:00 +31°C° 0 mm 2 mps 702 mmHg 34%
    02:00 +30°C° 0 mm 2 mps 702 mmHg 38%
    03:00 +30°C° 0 mm 2 mps 702 mmHg 34%
    04:00 +30°C° 0 mm 2 mps 702 mmHg 30%
    05:00 +30°C° 0 mm 1 mps 702 mmHg 27%
    06:00 +32°C° 0 mm 1 mps 703 mmHg 22%
    07:00 +34°C° 0 mm 1 mps 703 mmHg 18%
    08:00 +36°C° 0 mm 1 mps 704 mmHg 14%
    09:00 +37°C° 0 mm 1 mps 704 mmHg 13%
    10:00 +40°C° 0 mm 2 mps 704 mmHg 12%
    11:00 +41°C° 0 mm 2 mps 704 mmHg 11%
    12:00 +41°C° 0 mm 2 mps 704 mmHg 11%
    13:00 +42°C° 0 mm 2 mps 703 mmHg 11%
    14:00 +42°C° 0 mm 2 mps 703 mmHg 11%
    15:00 +42°C° 0 mm 2 mps 702 mmHg 11%
    16:00 +42°C° 0 mm 3 mps 702 mmHg 12%
    17:00 +42°C° 0 mm 3 mps 702 mmHg 12%
    18:00 +40°C° 0 mm 3 mps 702 mmHg 14%
    19:00 +38°C° 0 mm 3 mps 702 mmHg 16%
    20:00 +37°C° 0 mm 3 mps 702 mmHg 18%
    21:00 +36°C° 0 mm 2 mps 702 mmHg 19%
    22:00 +35°C° 0 mm 2 mps 702 mmHg 19%
    23:00 +33°C° 0 mm 1 mps 702 mmHg 20%

    27 May, Monday

    Time Temperature Precipitation Wind Pressure Humidity
    00:00 +33°C° 0 mm 1 mps 702 mmHg 20%
    01:00 +33°C° 0 mm 1 mps 701 mmHg 20%
    02:00 +32°C° 0 mm 1 mps 701 mmHg 20%
    03:00 +32°C° 0 mm 1 mps 701 mmHg 20%
    04:00 +31°C° 0 mm 1 mps 701 mmHg 21%
    05:00 +30°C° 0 mm 1 mps 702 mmHg 21%
    06:00 +32°C° 0 mm 1 mps 702 mmHg 19%
    07:00 +35°C° 0 mm 1 mps 703 mmHg 17%
    08:00 +37°C° 0 mm 1 mps 703 mmHg 14%
    09:00 +39°C° 0 mm 1 mps 703 mmHg 13%
    10:00 +40°C° 0 mm 1 mps 703 mmHg 11%
    11:00 +42°C° 0 mm 1 mps 703 mmHg 9%
    12:00 +42°C° 0 mm 2 mps 703 mmHg 9%
    13:00 +43°C° 0 mm 2 mps 703 mmHg 9%
    14:00 +43°C° 0 mm 2 mps 702 mmHg 9%
    15:00 +44°C° 0 mm 3 mps 702 mmHg 9%
    16:00 +43°C° 0 mm 3 mps 702 mmHg 10%
    17:00 +42°C° 0 mm 3 mps 702 mmHg 10%
    18:00 +40°C° 0 mm 3 mps 702 mmHg 12%
    19:00 +38°C° 0 mm 3 mps 702 mmHg 14%
    20:00 +37°C° 0 mm 3 mps 702 mmHg 16%
    21:00 +36°C° 0 mm 2 mps 702 mmHg 15%
    22:00 +36°C° 0 mm 2 mps 702 mmHg 15%
    23:00 +35°C° 0 mm 2 mps 702 mmHg 15%
    Show more